Albion, NE

10:55 PM CDT on October 13, 2019 (GMT -0500)
Albion Municipal

Weather History for KBVN - June, 2019

Change the Weather History Date:

Saturday, June 1, 2019

  Actual Average (WUND) Record (WUND)
Temperature  
Mean Temperature 64 °F -  
Max Temperature 74 °F - - (-1)
Min Temperature 54 °F - - (-1)
Growing Degree Days 14 (Base 50)    
Moisture  
Dew Point 53 °F    
Average Humidity 68    
Maximum Humidity 94    
Minimum Humidity 39    
Precipitation  
Precipitation 0.09 in - - ()
Sea Level Pressure  
Sea Level Pressure 29.96 in    
Wind  
Wind Speed 9 mph (North)    
Max Wind Speed 20 mph    
Max Gust Speed 25 mph    
Visibility 10 miles    
Events Rain , Thunderstorm    
Averages and records for this station are not official NWS values.
T = Trace of Precipitation, MM = Missing Value Source: NWS Daily Summary

Daily Weather History Graph

Daily Weather History Graph

Search for Another Location

Airport or City:

Astronomy

Jun. 01, 2019 Rise Set
Actual Time 6:00 AM CDT 9:00 PM CDT
Civil Twilight 5:26 AM CDT 9:33 PM CDT
Nautical Twilight 4:44 AM CDT 10:16 PM CDT
Astronomical Twilight 3:54 AM CDT 11:06 PM CDT
Moon 5:08 AM CDT (6/1) 7:13 PM CDT (6/1)
Length of Visible Light 16h 07m
Length of Day
15h 00m
Waning Crescent, 4% of the Moon is Illuminated
Jun 1
Waning Crescent
Jun 3
New
Jun 10
First Quarter
Jun 17
Full
Jun 25
Last Quarter

Hourly Weather History & Observations

Time (CDT) Temp. Dew Point Humidity Pressure Visibility Wind Dir Wind Speed Gust Speed Precip Events Conditions
12:15 AM 70.9 °F 54.0 °F 55% 29.95 in 10.0 mi North 16.1 mph 23.0 mph N/A Thunderstorm Thunderstorm
12:35 AM 66.9 °F 54.1 °F 63% 29.92 in 10.0 mi NE 10.4 mph - N/A Thunderstorm Thunderstorm
12:55 AM 66.2 °F 54.5 °F 66% 29.93 in 10.0 mi NNE 5.8 mph - N/A Thunderstorm Thunderstorm
1:15 AM 64.0 °F 56.7 °F 77% 29.92 in 5.0 mi SE 3.5 mph - 0.09 in Rain , Thunderstorm Heavy Thunderstorms and Rain
1:35 AM 62.6 °F 57.6 °F 84% 29.91 in 10.0 mi SW 3.5 mph - 0.09 in Thunderstorm Thunderstorm
1:55 AM 61.3 °F 58.5 °F 90% 29.90 in 10.0 mi South 4.6 mph - 0.09 in Thunderstorm Thunderstorm
2:15 AM 61.2 °F 58.1 °F 90% 29.89 in 10.0 mi SE 4.6 mph - N/A   Clear
2:35 AM 61.2 °F 57.2 °F 87% 29.88 in 10.0 mi South 6.9 mph - N/A   Scattered Clouds
2:55 AM 60.8 °F 57.2 °F 88% 29.87 in 10.0 mi SSE 5.8 mph - N/A   Mostly Cloudy
3:15 AM 60.8 °F 56.5 °F 86% 29.87 in 10.0 mi SE 4.6 mph - N/A   Scattered Clouds
3:35 AM 61.0 °F 55.9 °F 83% 29.88 in 10.0 mi Calm Calm - N/A   Scattered Clouds
3:55 AM 60.3 °F 56.3 °F 87% 29.88 in 10.0 mi Calm Calm - N/A   Scattered Clouds
4:15 AM 59.7 °F 56.3 °F 88% 29.87 in 10.0 mi ESE 3.5 mph - N/A   Scattered Clouds
4:35 AM 59.5 °F 55.4 °F 86% 29.88 in 10.0 mi NW 4.6 mph - N/A   Clear
4:55 AM 58.3 °F 55.0 °F 89% 29.89 in 10.0 mi NNW 6.9 mph - N/A   Clear
5:15 AM 58.1 °F 55.0 °F 90% 29.90 in 10.0 mi NNW 4.6 mph - N/A   Clear
5:35 AM 57.9 °F 55.0 °F 90% 29.90 in 10.0 mi Calm Calm - N/A   Clear
5:55 AM 56.5 °F 54.9 °F 94% 29.90 in 7.0 mi NNW 5.8 mph - N/A   Clear
6:15 AM 56.3 °F 54.7 °F 94% 29.91 in 7.0 mi NW 5.8 mph - N/A   Clear
6:35 AM 58.1 °F 55.4 °F 91% 29.91 in 10.0 mi NNW 9.2 mph - N/A   Clear
6:55 AM 59.2 °F 55.4 °F 87% 29.93 in 10.0 mi NNW 9.2 mph - N/A   Clear
7:15 AM 60.1 °F 55.4 °F 85% 29.94 in 10.0 mi NNW 11.5 mph - N/A   Clear
7:35 AM 60.8 °F 55.8 °F 83% 29.94 in 10.0 mi NNW 11.5 mph 16.1 mph N/A   Clear
7:55 AM 61.2 °F 56.5 °F 85% 29.95 in 10.0 mi NNW 9.2 mph - N/A   Clear
8:15 AM 61.3 °F 56.5 °F 84% 29.95 in 10.0 mi NNW 18.4 mph 21.9 mph N/A   Clear
8:35 AM 61.9 °F 57.2 °F 85% 29.96 in 10.0 mi NNW 18.4 mph 23.0 mph N/A   Clear
8:55 AM 62.2 °F 57.4 °F 84% 29.96 in 10.0 mi NNW 11.5 mph 20.7 mph N/A   Clear
9:15 AM 63.3 °F 57.4 °F 81% 29.96 in 10.0 mi North 13.8 mph - N/A   Clear
9:35 AM 63.9 °F 57.7 °F 80% 29.96 in 10.0 mi NNW 13.8 mph 20.7 mph N/A   Clear
9:55 AM 64.6 °F 58.1 °F 79% 29.97 in 10.0 mi North 16.1 mph 25.3 mph N/A   Clear
10:15 AM 65.1 °F 58.6 °F 79% 29.97 in 10.0 mi NNW 17.3 mph - N/A   Clear
10:35 AM 65.3 °F 58.3 °F 78% 29.98 in 10.0 mi NNW 17.3 mph 21.9 mph N/A   Clear
10:55 AM 65.7 °F 57.4 °F 75% 29.99 in 10.0 mi NNW 15.0 mph 19.6 mph N/A   Clear
11:15 AM 66.0 °F 56.7 °F 72% 29.99 in 10.0 mi NNW 19.6 mph - N/A   Clear
11:35 AM 67.1 °F 55.2 °F 66% 30.00 in 10.0 mi North 16.1 mph 20.7 mph N/A   Clear
11:55 AM 68.4 °F 53.6 °F 59% 30.00 in 10.0 mi North 13.8 mph 19.6 mph N/A   Clear
12:15 PM 69.4 °F 53.8 °F 57% 30.00 in 10.0 mi NNW 13.8 mph 19.6 mph N/A   Clear
12:35 PM 70.2 °F 52.7 °F 54% 30.00 in 10.0 mi North 11.5 mph 19.6 mph N/A   Clear
12:55 PM 71.1 °F 53.4 °F 54% 30.00 in 10.0 mi North 12.7 mph - N/A   Clear
1:15 PM 71.4 °F 53.2 °F 53% 30.00 in 10.0 mi NNW 13.8 mph 20.7 mph N/A   Clear
1:35 PM 71.1 °F 52.2 °F 51% 30.00 in 10.0 mi North 13.8 mph 20.7 mph N/A   Clear
1:55 PM 72.3 °F 52.2 °F 49% 30.00 in 10.0 mi North 12.7 mph 19.6 mph N/A   Clear
2:15 PM 72.3 °F 51.8 °F 48% 30.00 in 10.0 mi NNW 15.0 mph 19.6 mph N/A   Clear
2:35 PM 72.5 °F 51.1 °F 47% 30.00 in 10.0 mi NNW 13.8 mph 20.7 mph N/A   Clear
2:55 PM 72.9 °F 50.0 °F 44% 30.00 in 10.0 mi NNW 15.0 mph 23.0 mph N/A   Clear
3:15 PM 73.2 °F 50.7 °F 45% 29.99 in 10.0 mi North 11.5 mph 24.2 mph N/A   Clear
3:35 PM 72.9 °F 50.2 °F 45% 29.99 in 10.0 mi NNW 13.8 mph 17.3 mph N/A   Clear
3:55 PM 73.0 °F 50.5 °F 45% 29.99 in 10.0 mi NNW 13.8 mph 17.3 mph N/A   Clear
4:15 PM 73.0 °F 48.9 °F 42% 29.99 in 10.0 mi NNW 11.5 mph 18.4 mph N/A   Clear
4:35 PM 73.9 °F 47.7 °F 39% 29.99 in 10.0 mi North 12.7 mph - N/A   Clear
4:55 PM 73.8 °F 47.8 °F 40% 29.99 in 10.0 mi North 10.4 mph 18.4 mph N/A   Clear
5:15 PM 73.0 °F 47.5 °F 40% 29.99 in 10.0 mi NNW 9.2 mph - N/A   Clear
5:35 PM 73.2 °F 48.9 °F 42% 29.99 in 10.0 mi North 11.5 mph - N/A   Clear
5:55 PM 73.0 °F 47.7 °F 40% 29.98 in 10.0 mi NNW 10.4 mph - N/A   Clear
6:15 PM 72.5 °F 46.4 °F 39% 29.97 in 10.0 mi North 9.2 mph 16.1 mph N/A   Clear
6:35 PM 71.6 °F 47.7 °F 43% 29.97 in 10.0 mi North 9.2 mph - N/A   Clear
6:55 PM 70.9 °F 46.8 °F 42% 29.97 in 10.0 mi North 6.9 mph - N/A   Clear
7:15 PM 69.8 °F 48.0 °F 46% 29.97 in 10.0 mi NNE 9.2 mph - N/A   Clear
7:35 PM 68.9 °F 46.6 °F 45% 29.98 in 10.0 mi North 5.8 mph - N/A   Clear
7:55 PM 67.5 °F 48.9 °F 51% 29.99 in 10.0 mi North 4.6 mph - N/A   Clear
8:15 PM 66.2 °F 51.1 °F 58% 29.99 in 10.0 mi North 3.5 mph - N/A   Clear
8:35 PM 66.0 °F 50.9 °F 58% 29.99 in 10.0 mi North 3.5 mph - N/A   Clear
8:55 PM 63.5 °F 50.9 °F 63% 30.00 in 10.0 mi North 4.6 mph - N/A   Clear
9:15 PM 61.7 °F 49.8 °F 65% 30.00 in 10.0 mi North 5.8 mph - N/A   Clear
9:35 PM 60.6 °F 50.0 °F 68% 30.01 in 10.0 mi North 5.8 mph - N/A   Clear
9:55 PM 60.1 °F 49.6 °F 68% 30.01 in 10.0 mi North 5.8 mph - N/A   Clear
10:15 PM 59.2 °F 49.6 °F 71% 30.01 in 10.0 mi North 6.9 mph - N/A   Clear
10:35 PM 58.6 °F 49.6 °F 72% 30.01 in 10.0 mi North 5.8 mph - N/A   Clear
10:55 PM 57.7 °F 49.5 °F 74% 30.03 in 10.0 mi North 4.6 mph - N/A   Clear
11:15 PM 57.7 °F 49.1 °F 73% 30.03 in 10.0 mi Calm Calm - N/A   Clear
11:35 PM 56.1 °F 49.8 °F 79% 30.06 in 10.0 mi Calm Calm - N/A   Clear
11:55 PM 54.7 °F 49.5 °F 83% 30.04 in 10.0 mi North 4.6 mph - N/A   Clear